| time (UTC) | temp F | wind direction | speed MPH | gust MPH | rain 1hr in | rain 24hr in | rain mn in | humidity % | barometer mb |
| 20260831145102 | 82 | 0.0 | 0.0 | 0.00 | 0.00 | 0.00 | 31 | 1020.4 | |
| 20260831143102 | 82 | 0.0 | 0.0 | 0.00 | 0.00 | 0.00 | 32 | 1020.6 | |
| 20260831135602 | 81 | 0.0 | 0.0 | 0.00 | 0.00 | 0.00 | 34 | 1020.8 | |
| 20260831134602 | 81 | 0.0 | 0.0 | 0.00 | 0.00 | 0.00 | 35 | 1020.8 | |
| 20260831132602 | 80 | 0.0 | 0.0 | 0.00 | 0.00 | 0.00 | 36 | 1021.0 | |
| 20260831131602 | 80 | 0.0 | 0.0 | 0.00 | 0.00 | 0.00 | 36 | 1021.1 | |
| 20260831124602 | 80 | 0.0 | 0.0 | 0.00 | 0.00 | 0.00 | 36 | 1021.1 | |
| 20260831123602 | 79 | 0.0 | 0.0 | 0.00 | 0.00 | 0.00 | 36 | 1021.2 | |
| 20260831122602 | 79 | 0.0 | 0.0 | 0.00 | 0.00 | 0.00 | 37 | 1021.3 | |
| 20260831120602 | 78 | 0.0 | 0.0 | 0.00 | 0.00 | 0.00 | 37 | 1021.4 | |
| 20260831115602 | 78 | 0.0 | 0.0 | 0.00 | 0.00 | 0.00 | 37 | 1021.5 | |
| 20260831113102 | 77 | 0.0 | 0.0 | 0.00 | 0.00 | 0.00 | 38 | 1021.6 | |
| 20260831103102 | 75 | 0.0 | 0.0 | 0.00 | 0.00 | 0.00 | 38 | 1021.8 | |
| 20260831102602 | 75 | 0.0 | 0.0 | 0.00 | 0.00 | 0.00 | 38 | 1021.8 | |
| 20260830225603 | 71 | 0.0 | 0.0 | 0.00 | 0.00 | 0.00 | 52 | 1021.9 | |
| 20260830223102 | 70 | 0.0 | 0.0 | 0.00 | 0.00 | 0.00 | 52 | 1021.6 | |
| 20260830222602 | 71 | 0.0 | 0.0 | 0.00 | 0.00 | 0.00 | 52 | 1021.5 | |
| 20260830214602 | 72 | 0.0 | 0.0 | 0.00 | 0.00 | 0.00 | 49 | 1021.2 | |
| 20260830213603 | 71 | 0.0 | 0.0 | 0.00 | 0.00 | 0.00 | 49 | 1021.2 | |
| 20260830213102 | 71 | 0.0 | 0.0 | 0.00 | 0.00 | 0.00 | 49 | 1021.1 | |
| 20260830212603 | 72 | 0.0 | 0.0 | 0.00 | 0.00 | 0.00 | 48 | 1021.1 | |
| 20260830211602 | 72 | 0.0 | 0.0 | 0.00 | 0.00 | 0.00 | 48 | 1021.1 | |
| 20260830205102 | 72 | 0.0 | 0.0 | 0.00 | 0.00 | 0.00 | 47 | 1020.9 | |
| 20260830204602 | 72 | 0.0 | 0.0 | 0.00 | 0.00 | 0.00 | 47 | 1020.9 | |
| 20260830204103 | 72 | 0.0 | 0.0 | 0.00 | 0.00 | 0.00 | 47 | 1020.9 |